Погода Усть-Оленек

Поиск расширенной информации на нашем сайте:

Полезная информация:

Новости сайта



02.01.2020
Опубликован Долгосрочный прогноз погоды по городам России и ближнего зарубежья на январь 2020 года.
Карты: Прогноз на январь и февраль 2020 года, Сравнение прогнозируемой аномалии приземной температуры воздуха на январь 2020 года по разным моделям.




Погода Усть-Оленек - сегодня

Время (UTC), дата Ветер
(°,м/с) 
Видим.   Явления Облачность Т
(°С)
Тd
(°С)
f(%) Тe
(°С)
Pmin
(гПа)
dP
(гПа)
Po
(мм)
O2
(г/м3)
Тmin Tmax R s Состояние
почвы
09 22.11.20 170 (Ю) 9-11{12}  20000 м  позёмок  10/5 600 м средняя, верхняя 
[Sc|Ac trans|Ci fib]
-14 -16 85 -22  994.2  0.2  744  317           
12 22.11.20 170 (Ю) 8-10{12}  20000 м  позёмок  10/8 600 м верхняя 
[Sc|Ci fib]
-13.8 -15.8 85 -21  995.3  1.1  745  317    -13.3       
15 22.11.20 170 (Ю) 8-10{11}  20000 м  позёмок  10/6 600 м верхняя 
[Sc|Ci fib]
-13.4 -15.4 85 -21  995.7  0.4  745  317           
18 22.11.20 160 (Ю) 8{10}  20000 м  позёмок  10/4 600 м верхняя 
[Sc|Ci fib]
-11.9 -13.9 85 -19  996.3  0.6  746  315           
21 22.11.20 230 (ЮЗ) 20000 м  позёмок  10/6 600 м верхняя 
[Sc|Ci fib]
-10 -12 85 -15  998.1  1.9  747  314           
00 23.11.20 160 (Ю) 10 км  слаб. снег  10/4 600 м средняя 
[Sc|Ac As]
-13.5 -15.5 85 -18  1000.4  2.2  749  319  -13.9    0.0  27  неравномерный
сухой снег
100% 
03 23.11.20 180 (Ю) 20000 м  {снег}  10/8 600 м средняя 
[Sc|Ac As]
-12.7 -14.7 85 -17  1002.2  1.8  750  318  -14.1         
06 23.11.20 180 (Ю) 20000 м  {снег}  4/1 600 м верхняя 
[Sc|Ci fib]
-15.4 -17.3 85 -20  1004  1.8  752  322           
09 23.11.20 160 (Ю) 20000 м    3/0 верхняя 
[Ci fib]
-17.2 -19.8 80 -22  1006  753  325           
12 23.11.20 140 (ЮВ) 20000 м    3/0 верхняя 
[Ci fib]
-18.7 -21.3 80 -24  1007.8  1.8  754  328    -12.4  0.0     
15 23.11.20 110 (В) 20000 м    3/0 верхняя 
[Ci fib]
-18.3 -20.9 80 -24  1009.8  756  328           
18 23.11.20 140 (ЮВ) 20000 м    4/0 верхняя 
[Ci fib]
-19.5 -22.1 80 -25  1012  2.2  758  330           
21 23.11.20 160 (Ю) 20000 м    3/0 верхняя 
[Ci fib]
-21.3 -23.8 80 -26  1014.2  2.2  759  333           
00 24.11.20 140 (ЮВ) 20000 м    6/0 верхняя 
[Ci fib]
-22.1 -24.7 79 -25  1016.1  1.8  761  335  -22.2      28  неравномерный
сухой снег
100% 
15 24.11.20 тихо ()   10 км  слаб. снег  10/10 600 м 
[Sc]
-19.7 -22.3 80 -20  1022.1  0.1  765  334           
18 24.11.20 тихо ()   10 км  слаб. снег  10/10 600 м 
[Sc]
-18.1 -20.7 80 -18  1022.9  0.8  766  332           
21 24.11.20 тихо ()   10 км  слаб. снег  10/10 600 м 
[Sc]
-17.9 -20.5 80 -18  1023.5  0.6  766  332           
00 25.11.20 тихо ()   10 км  слаб. снег  10/10 600 м 
[Sc]
-18.2 -20.8 80 -18  1024.7  1.2  767  333  -22.9    0.3  29  неравномерный
сухой снег
100% 
03 25.11.20 240 (ЮЗ) 10 км  слаб. снег  10/10 600 м 
[Sc]
-19.2 -21.8 80 -22  1024.9  0.2  767  334           
06 25.11.20 тихо ()   20000 м  {снег}  10/10 600 м 
[Sc]
-22.2 -24.8 79 -22  1025.6  0.6  768  338           
09 25.11.20 тихо ()   20000 м    10/4 600 м верхняя 
[Sc|Ci fib]
-21.2 -23.7 80 -21  1025.4  -0.1  768  337           
12 25.11.20 тихо ()   20000 м    3/1 600 м верхняя 
[Sc|Ci fib]
-18.5 -21.1 80 -19  1025  -0.4  767  333    -18  0.0     
15 25.11.20 240 (ЮЗ) 20000 м    10/5 600 м верхняя 
[Sc|Ci fib]
-17.5 -20.1 80 -18  1024.8  -0.2  767  332           
18 25.11.20 тихо ()   20000 м    10/6 600 м верхняя 
[Sc|Ci fib]
-14.7 -16.7 85 -15  1024  -0.8  767  328           
21 25.11.20 тихо ()   20000 м    10/8 600 м верхняя 
[Sc|Ci fib]
-14.5 -16.5 85 -15  1023.5  -0.5  766  327           
Время (UTC), дата Ветер
(°,м/с) 
Видим.   Явления Облачность Т
(°С)
Тd
(°С)
f(%) Тe
(°С)
Pmin
(гПа)
dP
(гПа)
Po
(мм)
O2
(г/м3)
Тmin Tmax R s Состояние
почвы

Для получения пояснительной информации подведите курсор к названию столбца.

ПОГОДА Усть-Оленек - архив

Всё, что Вы хотите узнать о погоде Усть-Оленек - удобно и подробно!

Выберите нужную дату (начиная с 1 января 2019* года) и нажмите кнопку "Найти".
Будут отображены архивные сводки погоды по пункту Усть-Оленек, начиная с указанной даты.


Отображать данные в формате CSV (для использования в таблицах Excel)


Внимание! Наш архив погоды предназначен исключительно для личного некоммерческого использования в познавательных целях. Если Вам необходимы официальные справки о состоянии погоды (для производственных, юридических, коммерческих и т.п. целей), обращайтесь в органы Росгидромета.

*Примечание: данная дата относится к архиву по метеостанциям СССР (Россия, СНГ, Балтия).
Архив по метеостанциям Зарубежной Европы и Азии (кроме Китая) хранится 10 дней, по другим регионам земного шара (Китай, Африка, Америка, Австралия, Океания) - 1 день.

Усть-Оленек - район местоположения метеостанции


Название, широта, долгота, высота метеостанции:
Усть-Оленек 73°ш. 119.7°д. 21 м над ур. моря [Российская Федерация]

Дополнительная информация

В oтличие oт бoльшинства пoгoдных сайтoв мы публикуем пoдрoбную метеoинфoрмацию в детальнoм прoфессиoнальнoм фoрмате.

Характеристики температуры и влажнoсти вoздуха измеряются на высoте 2 м в тени вдали oт зданий и деревьев.
Скoрoсть ветра измеряется на высoте 10 м (на урoвне рoста челoвека скoрoсть ветра ниже в 1.5-2 раза). Если метеoстанция нахoдится в гoрoде или в лесу, тo скoрoсть ветра занижена на 2-4 м/с пo сравнению с oткрытым местoм. Скoрoсть ветра над акватoриями крупных рек и oзёр, а также на вершинах хoлмoв на 2-5 м/с выше, чем в oбычных услoвиях.
Атмoсфернoе давление в разных тoчках местнoсти мoжет значительнo oтличаться oт давления на метеoстанции, в зависимoсти oт услoвий рельефа (при пoдъёме на 10 м давление пoнижается примернo на 1 мм рт.ст.).